RH
94 92 96 98 97 91 70 67 51 33 30 29 30 29 35 64 85 88 94 74 65 57 53 50 47 46 46 46 47 49 50 51 53 54 53 54 59 56 58 57 58 59 58
85 88 91 95 88 75 66 49 35 35 35 33 31 30 34 50 82 87 85 82 63 54 48 44 41 40 40 41 45 48 51 52 54 55 56 55 56 58 59 59 58 58 59
80 83 85 83 69 55 39 36 38 39 38 35 35 34 32 37 71 77 76 72 67 58 42 38 36 38 36 38 42 46 47 52 55 55 56 57 59 58 58 59 60 60 59
74 75 75 71 60 50 43 44 44 44 44 41 37 36 38 36 40 69 65 66 59 55 46 36 33 33 33 38 41 45 45 48 52 54 56 58 58 59 59 60 59 59 58
70 68 67 66 52 50 46 41 44 42 42 42 36 37 44 42 37 37 56 57 52 57 53 40 39 34 32 34 37 41 43 43 48 51 56 58 58 58 59 59 58 58 58
66 66 66 54 48 50 46 42 42 47 45 43 31 40 48 52 44 41 40 36 45 43 42 39 44 38 31 30 32 36 41 42 44 47 51 54 57 58 58 58 58 57 57
65 65 59 47 50 43 45 39 46 41 46 48 45 48 52 44 46 46 47 45 41 38 40 41 40 40 40 32 31 34 37 39 42 45 49 53 56 57 57 57 57 57 56
74 66 53 47 45 46 43 44 47 51 49 47 44 56 47 40 42 39 50 43 40 40 36 33 34 35 40 46 45 36 35 35 40 44 48 51 56 56 57 57 57 56 56
74 72 55 48 45 44 45 46 48 48 52 48 40 42 53 47 44 41 40 39 36 42 40 41 36 38 39 43 45 46 42 35 39 44 49 52 54 55 57 57 56 56 54
80 64 53 56 46 48 46 49 48 54 50 48 48 36 39 39 39 34 40 43 39 34 38 43 45 42 41 48 47 49 46 40 42 46 50 52 54 56 57 57 57 55 55
80 67 56 53 43 48 42 41 46 50 49 46 52 49 43 48 46 46 41 45 43 41 41 44 45 48 46 48 56 53 46 44 47 49 53 56 57 58 59 58 58 56 54
85 69 58 57 47 44 45 45 44 40 41 42 43 42 42 41 44 47 50 50 50 46 46 46 47 50 51 50 41 47 48 49 51 54 57 59 59 59 59 58 58 57 57
76 71 67 62 54 48 48 48 44 41 39 40 40 45 45 43 45 46 49 54 56 58 53 52 51 52 39 53 54 48 49 51 52 55 60 62 60 58 58 59 59 57 58
70 71 71 66 56 48 48 49 51 48 44 48 45 50 52 52 50 49 55 59 64 67 64 52 55 53 53 55 52 51 57 55 55 57 60 60 58 58 58 58 58 57 58
72 67 65 62 51 45 45 44 48 48 42 49 52 55 54 57 58 60 62 64 64 68 70 62 58 56 56 58 58 54 61 58 56 56 57 58 58 59 58 57 56 56 57
60 63 58 50 47 46 47 47 47 42 42 49 55 53 54 57 58 61 63 64 71 70 73 66 62 62 59 52 59 54 59 58 60 61 61 60 59 59 58 57 58 58 58
53 48 45 44 44 43 42 50 54 46 40 44 52 50 52 54 57 59 64 64 67 72 75 67 68 66 74 72 64 68 66 61 62 64 62 62 61 58 58 57 58 58 58
47 45 43 44 51 62 72 76 60 36 40 44 49 51 51 42 55 58 62 65 68 70 76 74 74 79 79 75 76 75 64 57 64 65 67 61 60 58 59 60 61 61 60
47 44 47 55 61 66 65 51 46 40 41 45 46 49 49 52 56 61 66 68 71 59 76 82 77 82 84 82 81 79 79 76 69 64 60 60 60 61 64 64 63 62 61
48 50 52 53 54 51 45 37 43 50 53 56 60 63 59 56 57 61 62 66 62 73 79 84 83 92 96 84 82 90 78 67 67 54 58 61 64 64 65 64 65 64 65
48 51 52 56 63 62 57 65 70 79 82 79 64 51 52 55 57 56 56 70 74 78 83 94 91 98 92 83 78 74 77 72 69 68 68 69 73 77 74 69 66 66 67
66 69 68 68 76 73 81 86 84 81 62 56 58 58 57 56 57 52 50 51 52 82 95 98 98 92 86 80 78 80 82 84 88 72 89 76 69 69 68 68 69 68 67
80 85 88 92 95 92 90 81 63 57 58 60 60 60 55 45 63 65 63 58 60 60 59 66 76 81 86 82 84 89 87 91 92 75 76 80 69 71 66 60 67 67 67
91 92 97 98 94 73 57 54 59 59 61 63 64 66 69 71 71 66 70 84 80 79 74 71 84 83 81 75 82 96 86 82 79 72 70 88 70 73 66 67 69 70 70
95 95 77 63 62 71 57 49 61 67 64 66 66 68 73 75 64 58 70 87 83 78 66 62 60 61 64 66 63 68 88 92 88 76 70 80 82 82 76 74 68 71 67
68 51 44 39 49 56 50 45 57 65 70 65 71 71 66 61 59 58 68 78 82 75 72 77 79 70 64 69 66 71 86 96 94 93 84 97 86 89 90 90 79 81 69
Wind_Speed
6 5 4 4 4 4 3 4 4 4 4 4 4 5 4 5 4 2 2 10 10 9 9 8 8 8 8 7 8 8 8 9 9 9 9 10 11 11 11 12 11 11 10
7 6 5 5 4 4 4 4 5 4 3 3 4 4 4 4 4 4 2 4 10 9 8 8 7 6 6 7 7 8 8 9 9 10 10 10 11 11 11 11 11 11 12
7 8 6 4 4 4 6 5 4 4 4 3 4 3 3 4 5 4 3 3 5 8 7 6 5 5 5 7 7 8 8 9 10 10 10 10 11 11 11 12 12 12 12
10 8 6 6 5 4 4 4 4 4 3 3 2 1 1 3 4 5 4 3 3 3 5 5 4 4 4 8 8 9 9 8 10 9 9 10 10 11 12 12 12 12 12
10 8 7 5 6 5 4 5 2 3 2 1 1 1 1 1 4 3 5 5 4 4 2 3 4 4 5 7 8 8 10 8 9 8 9 9 10 12 13 14 14 15 15
10 9 6 7 6 5 5 4 4 3 2 2 2 2 1 1 2 4 5 3 4 4 3 3 2 1 3 5 6 8 10 9 7 8 9 10 11 12 14 15 16 17 17
12 11 8 8 6 7 6 6 4 4 2 1 3 3 2 2 0 1 1 2 3 4 3 2 1 1 2 2 2 6 11 10 8 11 10 10 12 13 15 17 18 19 19
12 10 11 9 8 6 7 6 5 3 2 1 3 2 1 3 3 2 1 1 2 1 3 2 1 2 3 2 4 8 9 9 10 11 13 12 14 16 18 20 19 20 20
13 12 11 11 10 7 8 6 6 6 4 1 1 4 3 4 1 2 2 1 1 2 2 2 4 4 3 3 5 7 9 9 11 13 14 15 16 19 21 21 21 22 23
12 12 12 11 11 7 8 6 5 4 5 4 1 2 3 4 4 1 1 1 1 2 1 2 2 4 5 4 7 8 11 13 14 16 16 18 19 21 23 23 24 25 22
7 10 12 12 12 8 8 8 6 6 3 4 3 3 1 2 2 3 3 3 2 2 2 0 3 3 5 5 4 6 10 12 15 17 19 21 23 24 25 26 26 26 24
4 6 8 9 10 9 10 8 6 6 5 5 3 3 3 3 3 3 2 2 3 4 2 3 2 2 2 4 7 13 15 17 18 20 22 25 26 27 27 26 26 25 24
6 9 9 9 7 10 8 7 7 6 5 5 5 3 3 2 2 2 3 1 2 2 3 2 2 1 2 3 4 14 16 18 20 21 24 26 25 25 25 25 25 27 28
9 10 8 7 8 10 9 7 5 4 5 5 7 5 3 2 2 3 3 3 2 2 2 5 2 2 2 3 9 17 7 19 19 23 25 24 25 25 26 25 26 28 26
8 10 11 10 10 11 10 9 6 5 5 5 5 6 4 2 2 3 2 3 4 2 3 3 2 3 4 4 7 7 6 13 24 25 25 25 24 24 25 25 27 26 24
13 13 12 12 10 11 9 7 4 5 4 4 4 5 3 2 2 2 2 2 3 4 4 4 4 3 4 5 7 9 8 21 21 23 24 23 24 25 25 26 24 26 26
13 14 13 12 11 11 8 7 4 5 2 4 4 6 5 5 4 2 2 2 3 4 5 3 3 3 4 6 7 6 8 9 9 21 24 24 25 24 24 25 27 27 27
11 12 12 12 11 10 8 6 9 5 4 5 3 3 3 2 3 4 3 5 4 4 4 8 4 3 5 6 6 8 9 9 9 18 24 24 25 25 25 26 26 26 26
11 12 13 12 12 10 5 5 5 4 4 3 2 1 1 2 4 3 4 4 4 5 4 4 6 3 4 3 6 7 8 9 8 20 23 25 25 26 25 25 25 26 26
13 13 13 13 12 9 7 6 7 5 4 3 3 4 3 5 5 4 4 6 5 4 4 4 5 4 3 5 6 7 9 8 9 10 17 21 24 22 24 26 27 27 27
14 14 14 12 9 8 5 6 6 5 4 1 3 2 4 5 7 8 4 5 5 4 4 4 4 2 4 7 9 8 9 10 10 10 11 7 7 7 10 19 22 25 26
15 14 13 11 8 6 9 9 4 4 3 1 1 4 4 8 8 12 13 15 12 4 4 3 3 6 8 9 8 9 10 10 10 5 3 10 9 10 10 9 22 26 28
13 12 10 9 6 6 8 8 7 2 3 2 2 4 4 3 6 5 10 14 14 16 15 11 10 8 10 9 11 12 12 10 9 11 11 12 9 12 10 11 25 28 30
9 8 7 7 4 5 9 6 6 4 3 3 2 2 3 5 6 8 6 6 6 6 7 6 7 9 10 11 11 10 11 10 9 10 10 12 9 12 11 10 25 29 29
7 7 5 6 6 4 7 4 5 2 1 3 3 4 5 5 11 15 7 6 6 6 9 18 21 22 22 23 21 10 8 8 11 11 9 10 7 10 10 13 12 24 24
6 5 5 4 6 3 6 6 5 2 1 3 4 4 9 10 15 16 9 5 5 7 9 8 5 9 13 12 19 8 6 8 10 9 3 2 8 7 7 4 6 6 9
Wind_Direction
184 172 180 172 178 154 165 150 135 126 102 86 72 95 88 112 110 95 71 98 105 101 95 86 75 65 56 45 41 32 24 23 14 7 6 6 2 360 355 351 347 344 334
183 174 176 182 176 166 167 143 144 132 106 98 75 85 100 114 126 122 111 104 116 109 101 88 68 48 37 30 29 24 23 19 10 3 357 360 357 356 351 345 339 336 329
174 170 176 168 167 167 142 119 108 98 90 68 67 73 109 127 151 150 135 107 103 108 116 100 72 61 39 21 23 18 16 19 8 1 0 360 357 350 346 340 339 332 325
172 167 167 172 158 155 141 130 124 92 93 88 89 43 119 132 147 162 149 137 131 124 133 124 77 49 48 21 8 4 9 8 0 358 359 354 352 348 343 338 333 327 320
162 162 164 161 152 148 144 138 104 125 126 96 142 110 111 143 156 148 167 166 172 156 165 171 106 87 41 9 356 359 352 341 348 348 347 341 344 340 336 331 327 322 316
162 158 148 154 152 146 137 125 124 70 121 139 87 60 25 13 143 163 181 173 184 176 168 148 133 39 16 359 3 348 340 330 330 332 324 324 325 330 328 326 322 316 310
168 164 159 154 157 159 153 139 120 122 65 86 94 20 357 10 261 220 190 179 182 175 167 152 146 14 312 311 332 335 336 323 315 315 314 310 309 317 320 318 312 308 305
172 169 161 163 161 135 142 156 148 131 118 150 136 106 128 325 336 10 333 193 157 107 103 107 336 290 274 283 279 311 321 314 308 308 309 304 301 312 314 310 307 304 301
174 174 169 165 159 152 163 171 163 153 147 207 146 141 116 216 20 347 14 78 69 90 84 38 4 354 333 278 294 300 292 294 301 305 305 303 303 307 308 307 304 302 299
179 165 162 170 163 157 160 167 162 151 132 152 69 41 59 133 163 295 332 277 71 138 77 337 353 331 345 332 323 315 299 295 295 302 304 303 301 305 306 302 303 298 301
192 174 167 168 165 161 162 161 155 159 148 140 147 153 80 50 83 124 235 302 328 267 274 224 312 16 7 9 355 341 344 322 313 308 305 303 303 302 301 301 297 297 295
163 170 165 171 171 154 155 159 147 158 152 127 132 138 150 163 187 151 184 251 239 294 308 321 341 53 49 23 359 348 335 321 312 308 304 302 301 300 300 298 298 298 297
171 177 168 161 176 141 140 145 144 146 145 136 141 143 115 135 132 118 122 233 264 298 310 292 274 42 40 347 318 327 320 317 306 305 305 302 302 302 300 297 299 297 294
166 160 154 151 150 138 137 136 125 119 130 137 140 125 123 143 139 144 156 147 310 294 304 251 295 145 346 332 319 318 314 310 305 304 303 303 303 300 295 295 296 292 293
150 146 150 150 156 137 141 146 145 142 150 133 139 136 134 159 127 135 140 148 160 269 273 280 271 257 330 300 292 308 294 301 304 303 302 300 298 297 296 297 289 290 296
146 152 157 154 150 135 134 125 109 100 146 125 140 131 126 131 138 148 162 166 174 192 241 213 253 264 282 294 288 312 290 303 302 300 299 298 299 295 294 288 294 292 286
151 155 153 145 137 121 115 115 97 146 173 120 133 153 171 162 168 181 195 176 212 186 238 271 242 261 275 276 290 281 283 288 287 293 298 298 297 292 293 298 292 293 291
148 143 132 120 108 96 95 116 171 141 173 151 149 144 178 185 197 181 195 231 229 227 220 267 243 252 242 265 269 282 288 286 284 286 293 293 295 296 293 292 291 287 286
127 127 118 109 105 106 104 109 94 131 137 111 153 181 261 216 237 217 223 237 236 248 234 255 279 245 257 266 283 271 269 273 272 284 291 293 293 294 294 291 291 294 295
116 107 103 105 104 111 133 141 114 103 79 72 32 9 274 238 238 239 236 241 246 249 251 257 269 260 244 278 273 288 296 288 290 285 282 284 288 292 291 295 295 293 290
102 101 99 90 92 87 91 83 76 76 70 2 256 288 294 271 250 248 236 240 237 240 250 252 268 257 275 286 295 299 290 293 289 278 278 280 274 266 272 285 284 286 286
93 91 90 96 87 108 127 102 155 154 185 161 349 325 312 305 299 293 291 291 286 248 227 214 229 274 278 292 294 290 287 291 301 253 269 290 293 283 276 272 277 283 282
98 99 99 110 128 110 127 170 164 124 80 35 14 328 323 330 335 304 295 292 294 295 294 295 294 278 286 285 285 286 280 273 280 293 291 291 289 283 279 273 280 282 283
99 108 109 98 127 186 177 152 115 79 66 22 332 316 300 297 300 296 274 270 269 265 275 269 250 268 266 269 264 266 292 291 284 284 286 285 287 280 282 275 280 284 284
115 96 125 167 165 150 168 137 109 131 74 328 310 293 291 298 305 311 302 276 271 269 280 292 293 298 300 301 301 304 290 296 292 291 288 284 275 285 282 278 270 272 277
120 134 137 124 140 177 198 200 172 150 244 279 303 299 322 323 314 307 304 295 301 289 283 290 292 294 290 280 292 287 275 275 284 292 265 265 299 305 298 232 266 263 268